Bettles, AK

1:05 PM AKST on November 12, 2019 (GMT -0900)
Bettles

Weather History for PABT - May, 2019

Change the Weather History Date:

Tuesday, May 7, 2019

  Actual Average Record
Temperature  
Mean Temperature 32 °F -  
Max Temperature 42 °F 48 °F 68 °F (1991)
Min Temperature 23 °F 29 °F 6 °F (1964)
Degree Days  
Heating Degree Days 32    
Moisture  
Dew Point 17 °F    
Average Humidity 47    
Maximum Humidity 63    
Minimum Humidity 28    
Precipitation  
Precipitation 0.00 in - - ()
Snow  
Snow 0.00 in - - ()
Snow Depth 28.00 in    
Sea Level Pressure  
Sea Level Pressure 29.91 in    
Wind  
Wind Speed 8 mph (NNE)    
Max Wind Speed 13 mph    
Max Gust Speed 22 mph    
Visibility 10 miles    
Events      
Averages and records for this station are not official NWS values.
T = Trace of Precipitation, MM = Missing Value Source: NWS Daily Summary

Daily Weather History Graph

Daily Weather History Graph

Search for Another Location

Airport or City:

Astronomy

May. 07, 2019 Rise Set
Actual Time 4:48 AM AKDT 11:19 PM AKDT
Civil Twilight 2:39 AM AKDT 1:52 AM AKDT
Nautical Twilight Sun does not rise Sun does not rise
Astronomical Twilight Sun does not rise Sun does not rise
Moon 6:17 AM AKDT (5/7) 2:05 AM AKDT (5/7)
Length of Visible Light 23h 12m
Length of Day
18h 30m
Waxing Crescent, 9% of the Moon is Illuminated
May 7
Waxing Crescent
May 11
First Quarter
May 18
Full
May 26
Last Quarter
Jun 3
New

Hourly Weather History & Observations

Time (AKDT) Temp. Windchill Dew Point Humidity Pressure Visibility Wind Dir Wind Speed Gust Speed Precip Events Conditions
12:53 AM 26.1 °F 21.9 °F 15.1 °F 63% 29.88 in 10.0 mi NNW 3.5 mph - N/A   Clear
2:53 AM 25.0 °F 19.3 °F 12.0 °F 58% 29.90 in 10.0 mi North 4.6 mph - N/A   Clear
3:53 AM 24.1 °F 16.0 °F 12.0 °F 60% 29.91 in 10.0 mi North 6.9 mph - N/A   Clear
4:53 AM 24.1 °F 17.0 °F 10.9 °F 57% 29.92 in 10.0 mi North 5.8 mph - N/A   Clear
5:53 AM 24.1 °F 13.7 °F 10.9 °F 57% 29.93 in 10.0 mi North 10.4 mph - N/A   Clear
6:53 AM 25.0 °F 15.5 °F 10.9 °F 55% 29.94 in 10.0 mi North 9.2 mph - N/A   Clear
7:53 AM 27.0 °F 17.3 °F 12.0 °F 53% 29.94 in 10.0 mi North 10.4 mph - N/A   Clear
8:53 AM 28.9 °F 20.4 °F 12.9 °F 51% 29.94 in 10.0 mi NNE 9.2 mph 19.6 mph N/A   Clear
9:53 AM 32.0 °F 23.6 °F 12.9 °F 45% 29.93 in 10.0 mi NNE 10.4 mph 17.3 mph N/A   Clear
10:53 AM 35.1 °F 26.4 °F 14.0 °F 42% 29.94 in 10.0 mi NE 12.7 mph 18.4 mph N/A   Clear
11:53 AM 37.0 °F 29.3 °F 15.1 °F 41% 29.94 in 10.0 mi NE 11.5 mph 18.4 mph N/A   Partly Cloudy
12:53 PM 37.9 °F 30.0 °F 16.0 °F 41% 29.93 in 10.0 mi NE 12.7 mph 20.7 mph N/A   Partly Cloudy
1:53 PM 39.9 °F 33.4 °F 17.1 °F 40% 29.93 in 10.0 mi NE 10.4 mph 19.6 mph N/A   Partly Cloudy
2:53 PM 39.9 °F 32.5 °F 19.0 °F 43% 29.93 in 10.0 mi NE 12.7 mph 18.4 mph N/A   Scattered Clouds
3:53 PM 41.0 °F 33.9 °F 19.0 °F 41% 29.92 in 10.0 mi NE 12.7 mph 21.9 mph N/A   Mostly Cloudy
4:53 PM 41.0 °F 34.3 °F 19.9 °F 43% 29.91 in 10.0 mi NE 11.5 mph 19.6 mph N/A   Mostly Cloudy
5:53 PM 42.1 °F 36.1 °F 19.9 °F 41% 29.91 in 10.0 mi ENE 10.4 mph 18.4 mph N/A   Overcast
6:53 PM 41.0 °F 36.4 °F 21.0 °F 45% 29.90 in 10.0 mi ENE 6.9 mph - N/A   Overcast
7:53 PM 41.0 °F 35.8 °F 21.0 °F 45% 29.88 in 10.0 mi NE 8.1 mph - N/A   Overcast
8:53 PM 39.9 °F 35.1 °F 21.9 °F 49% 29.88 in 10.0 mi NE 6.9 mph - N/A   Mostly Cloudy
9:53 PM 39.0 °F 32.8 °F 21.9 °F 50% 29.88 in 10.0 mi NE 9.2 mph - N/A   Overcast
10:53 PM 37.0 °F 31.6 °F 23.0 °F 57% 29.89 in 10.0 mi NNE 6.9 mph - N/A   Mostly Cloudy
11:53 PM 37.0 °F 29.8 °F 21.9 °F 54% 29.88 in 10.0 mi NE 10.4 mph - N/A   Scattered Clouds